Regional Weather Roundup
Issued by NWS

Home | Current Version | Previous Version | Text Only | Print | Product List | Glossary On
Versions: 1 2 3 4 5 6 7 8 9 10 11 12 13 14 15 16 17 18 19 20 21 22 23 24 25 26 27 28 29 30 31 32 33 34 35 36 37 38 39 40 41 42 43 44 45 46 47 48 49 50
000
ASUS43 KMPX 310301
RWRMN
WEATHER ROUNDUP FOR MINNESOTA
NATIONAL WEATHER SERVICE TWIN CITIES/CHANHASSEN MN
1000 PM CDT THU JUL 30 2015


NOTE: "FAIR" INDICATES FEW OR NO CLOUDS BELOW 12,000 FEET WITH NO
SIGNIFICANT WEATHER AND/OR OBSTRUCTIONS TO VISIBILITY. N/A MEANS
CURRENT SKY AND/OR WEATHER CONDITIONS ARE NOT AVAILABLE.

MNZ060>063-068>070-310400-
   Twin Cities Metro

CITY           SKY/WX    TMP DP  RH WIND       PRES   REMARKS
TWIN CITIES    PTCLDY    76  60  57 W5        30.01R
ST PAUL        CLEAR     75  60  59 W6        30.01R
CRYSTAL        PTCLDY    76  60  57 W6        30.00R
BLAINE         PTCLDY    77  59  53 W3        30.01R
LAKEVILLE      CLEAR     68  63  83 SW3       30.02S
EDEN PRAIRIE   PTCLDY    75  61  61 W3        30.01R
SOUTH ST PAUL  PTCLDY    75  59  57 SW3       30.00S
LAKE ELMO      FAIR      72  59  64 W5        30.02R
$$
MNZ001>005-007-008-013>017-022>024-027-028-310400-
   Northwest Minnesota

CITY           SKY/WX    TMP DP  RH WIND       PRES   REMARKS
BEMIDJI        LGT RAIN  70  56  60 W9        29.98R
HALLOCK        CLEAR     63  54  72 W8        29.97R
ROSEAU         CLEAR     66  57  72 W8        29.94R
WARROAD        CLEAR     68  57  68 W8        29.93R
THIEF RVR FALL CLEAR     66  48  52 W10       29.99R
CROOKSTON      CLEAR     64  54  68 NW7       30.01R
FOSSTON        CLEAR     66  54  63 W9        30.01R
DETROIT LAKES  CLEAR     70  55  60 W8        30.04R
MOORHEAD       CLEAR     64  57  77 W8        30.04R
PARK RAPIDS    CLEAR     66  53  63 W7        30.01R
MAHNOMEN       FAIR      67  55  64 NW9       30.02R
$$
MNZ006-009>011-018-025>026-310400-
   North Central Minnesota

CITY           SKY/WX    TMP DP  RH WIND       PRES   REMARKS
BAUDETTE       PTCLDY    65  55  70 W7        29.92S
FLAG ISLAND    PTCLDY    68  57  68 N12G23    29.90R
INTL FALLS     CLOUDY    64  56  75 W10G18    29.91R
WASKISH        PTCLDY    72  59  64 W14       29.94R
BIG FORK       PTCLDY    63  55  77 SW3       29.94S
LONGVILLE      CLEAR     68  54  60 W6        29.98S
GRAND RAPIDS   PTCLDY    70  54  56 W6        29.96S
CRANE LAKE     PTCLDY    70  50  49 NW7       29.90R
ORR            PTCLDY    64  54  68 CALM      29.89R
COOK           CLEAR     68  55  64 W7        29.92R
WALKER         FAIR      68  55  64 W7        29.98S
$$
MNZ012-019>021-037-310400-
   Northeast Minnesota

CITY           SKY/WX    TMP DP  RH WIND       PRES   REMARKS
DULUTH         PTCLDY    66  53  63 W9        29.95R
ELY            CLOUDY    68  54  60 W3        29.90R
HIBBING        CLEAR     66  54  65 SW5       29.94R
EVELETH        CLEAR     68  52  56 W6        29.94R
DULUTH HARBOR  CLEAR     75  59  57 W9        29.93R
TWO HARBORS    CLEAR     66  57  72 W3        29.90S
SILVER BAY     CLEAR     64  54  68 CALM      29.89R
GRAND MARAIS     N/A     66  53  63 NW7G17    29.85R
G MARAIS ARPRT LGT RAIN  57  52  82 CALM      29.92R
$$
MNZ029>031-032-039>041-046>048-054>057-064-310400-
   West Central Minnesota

CITY           SKY/WX    TMP DP  RH WIND       PRES   REMARKS
FERGUS FALLS   CLEAR     66  57  72 W5        30.03R
WHEATON        CLEAR     66  57  72 W7        30.07R
MORRIS         CLEAR     70  61  73 NW5       30.05R
ALEXANDRIA     CLEAR     69  58  67 W7        30.06R
ELBOW LAKE     FAIR      67  59  76 W5        30.05R
WADENA         CLEAR     64  54  68 W5        30.03R
GLENWOOD       CLEAR     72  57  60 W8        30.06R
APPLETON       CLEAR     70  61  73 NW6       30.05R
BENSON         CLEAR     64  61  88 NW5       30.05R
ORTONVILLE     CLEAR     72  59  64 NW5       30.07R
MADISON        CLEAR     72  59  64 NW5       30.07R
WILLMAR        FAIR      72  64  78 W3        30.07R
$$
MNZ033>034-036-042>043-049>051-058-059-310400-
   Central Minnesota

CITY           SKY/WX    TMP DP  RH WIND       PRES   REMARKS
ST CLOUD       CLEAR     68  59  73 W6        30.02R
SAUK CENTRE    FAIR      65  59  81 W5        30.05R
PAYNESVILLE    CLEAR     63  60  91 SW3       30.05R
AITKIN         CLEAR     66  55  68 SW3       29.98R
PINE RIVER     CLEAR     70  55  60 CALM      30.03R
BRAINERD       CLEAR     71  54  54 W6        30.01R
STAPLES        CLEAR     64  54  68 W5        30.02S
LONG PRAIRIE   FAIR      70  55  60 W5        30.05R
LITTLE FALLS   CLEAR     64  55  72 CALM      30.02R
LITCHFIELD     CLEAR     72  66  83 CALM      30.05R
BUFFALO        CLEAR     73  61  66 CALM      30.03R
$$
MNZ037-044-045-052-053-310400-
   East Central Minnesota

CITY           SKY/WX    TMP DP  RH WIND       PRES   REMARKS
PRINCETON      CLEAR     70  59  68 CALM      30.01R
MORA           CLEAR     68  57  68 W5        30.01R
CAMBRIDGE      CLEAR     73  59  60 CALM      29.99R
RUSH CITY      CLEAR     70  59  69 W3        30.00R
MOOSE LAKE     PTCLDY    64  55  72 W5        29.96R
HINCKLEY       FAIR      64  59  82 W5        29.99R
CLOQUET        CLEAR     70  52  52 W6        29.96R
MCGREGOR       CLEAR     70  55  60 SW3       29.98S
$$
MNZ071>073-080-081-089-090-097-098-310400-
   Southwest Minnesota

CITY           SKY/WX    TMP DP  RH WIND       PRES   REMARKS
MONTEVIDEO     CLEAR     70  57  64 N5        30.08R
GRANITE FALLS  CLEAR     68  64  85 W5        30.07R
CANBY          CLEAR     69  61  75 NW6       30.09R
MARSHALL       CLEAR     68  59  73 N8        30.09R
REDWOOD FALLS  PTCLDY    76  60  57 W8        30.04R
OLIVIA         PTCLDY    68  61  77 NW5       30.05R
PIPESTONE      CLEAR     68  63  83 CALM      30.11R
WINDOM         CLEAR     70  63  78 CALM      30.09R
WORTHINGTON    CLEAR     70  61  73 SW7       30.11R
JACKSON        CLEAR     72  64  78 SW6       30.10S
TRACY          CLEAR     70  63  78 SW7       30.08R
SLAYTON        CLEAR     69  61  76 CALM      30.11R
$$
MNZ065>067-074>077-082>085-091>093-310400-
   South Central Minnesota

CITY           SKY/WX    TMP DP  RH WIND       PRES   REMARKS
MANKATO        CLEAR     72  59  64 SW7       30.04R
NEW ULM        PTCLDY    70  63  78 SW6       30.04R
ST JAMES       CLEAR     72  64  78 SW6       30.07R
FAIRMONT       CLEAR     72  61  68 SW7       30.07S
GLENCOE        CLEAR     72  65  80 W3        30.03R
FARIBAULT      CLEAR     70  61  73 S3        30.04S
OWATONNA       CLEAR     68  61  77 SW6       30.05R
WASECA         CLEAR     66  61  82 CALM      30.06S
ALBERT LEA     CLEAR     68  64  88 CALM      30.07R
$$
MNZ078>079-086>088-094>096-310400-
   Southeast Minnesota

CITY           SKY/WX    TMP DP  RH WIND       PRES   REMARKS
ROCHESTER      CLEAR     66  60  81 SW9       30.06S
RED WING       CLEAR     70  61  73 CALM      30.00R
STANTON        CLEAR     68  62  81 CALM      30.01S
DODGE CENTER   PTCLDY    66  61  82 SW5       30.06R
WINONA         CLEAR     75  59  57 SW5       30.02S
AUSTIN         CLEAR     72  63  73 CALM      30.06S
PRESTON        CLEAR     69  59  69 W8        30.07R
$$
ABBREVIATIONS USED IN REMARKS
   TC - TEMPERATURES IN CELSIUS
  WCI - WIND CHILL INDEX
   HX - HEAT INDEX
  VSB - VISIBILITY
$$


USA.gov is the U.S. government's official web portal to all federal, state and local government web resources and services.